EHI
0 0 0 0 0 0 0 0 0 0 0 0 0 0 0 0 0 0 0 0 0 0 0 0 0 0 0 0 0 0 0 0 0 0 0 0 0 0 0 1 0 0 0 0
0 0 0 0 0 0 0 0 0 0 0 0 0 0 0 0 0 0 0 0 0 0 0 0 0 0 0 0 0 0 0 0 0 0 0 0 0 0 0 1 0 0 0 0
0 0 0 0 0 0 0 0 0 0 0 0 0 0 0 0 0 0 0 0 0 0 0 0 0 0 0 0 0 0 0 0 0 0 0 0 0 0 0 0 0 0 0 0
0 0 0 0 0 0 0 0 0 0 0 0 0 0 0 0 0 0 0 0 0 0 0 0 0 0 0 0 0 0 0 0 0 0 0 0 0 0 0 0 0 0 0 0
0 0 0 0 0 0 0 0 0 0 0 0 0 0 0 0 0 0 0 0 0 0 0 0 0 0 0 0 0 0 0 0 0 0 0 0 0 0 0 0 0 0 0 0
0 0 0 0 0 0 0 0 0 0 0 0 0 0 0 0 0 0 0 0 0 0 0 0 0 0 0 0 0 0 0 0 0 0 0 0 0 0 0 0 0 0 0 0
0 0 0 0 0 0 0 0 0 0 0 0 0 0 0 0 0 0 0 0 0 0 0 0 0 0 0 0 0 0 0 0 0 0 0 0 0 0 0 0 0 0 0 0
0 0 0 0 0 0 0 0 0 0 0 0 0 0 0 0 0 0 0 0 0 0 0 0 0 0 0 0 0 0 0 0 0 0 0 0 0 0 0 0 0 0 0 0
0 0 0 0 0 0 0 0 0 0 0 0 0 0 0 0 0 0 0 0 0 0 0 0 0 0 0 0 0 0 0 0 0 0 0 0 0 0 0 0 0 0 0 0
0 0 0 0 0 0 0 0 0 0 0 0 0 0 0 0 0 0 0 0 0 0 0 0 0 0 0 0 0 0 0 0 0 0 0 0 0 0 0 0 0 0 0 0
0 0 0 0 0 0 0 0 0 0 0 0 0 0 0 0 0 0 0 0 0 0 0 0 0 0 0 0 0 0 0 0 0 0 0 0 0 0 0 0 0 0 0 0
0 0 0 0 0 0 0 0 0 0 0 0 0 0 0 0 0 0 0 0 0 0 0 0 0 0 0 0 0 0 0 0 0 0 0 0 0 0 0 0 0 0 0 0
0 0 0 0 0 0 0 0 0 0 0 0 0 0 0 0 0 0 0 0 0 0 0 0 0 0 0 0 0 0 0 0 0 0 0 0 0 0 0 0 0 0 0 0
0 0 0 0 0 0 0 0 0 0 0 0 0 0 0 0 0 0 0 0 0 0 0 0 0 0 0 0 0 0 0 0 0 0 0 0 0 0 0 0 0 0 0 0
0 0 0 0 0 0 0 0 0 0 0 0 0 0 0 0 0 0 0 0 0 0 0 0 0 0 0 0 0 0 0 0 0 0 0 0 0 0 0 0 0 0 0 0
0 0 0 0 0 0 0 0 0 0 0 0 0 0 0 0 0 0 0 0 0 0 0 0 0 0 0 0 0 0 0 0 0 0 0 0 0 0 0 0 0 0 0 0
0 0 0 0 0 0 0 0 0 0 0 0 0 0 0 0 0 0 0 0 0 0 0 0 0 0 0 0 0 0 0 0 0 0 0 0 0 0 0 0 0 0 0 0
0 0 0 0 0 0 0 0 0 0 0 0 0 0 0 0 0 0 0 0 0 0 0 0 0 0 0 0 0 0 0 0 0 0 0 0 0 0 0 0 0 0 0 0
0 0 0 0 0 0 0 0 0 0 0 0 0 0 0 0 0 0 0 0 0 0 0 0 0 0 0 0 0 0 0 0 0 0 0 0 0 0 0 0 0 0 0 0
0 0 0 0 0 0 0 0 0 0 0 0 0 0 0 0 0 0 0 0 0 0 0 0 0 0 0 0 0 0 0 0 0 0 0 0 0 0 0 0 0 0 0 0
0 0 0 0 0 0 0 0 0 0 0 0 0 0 0 0 0 0 0 0 0 0 0 0 0 0 0 0 0 0 0 0 0 0 0 0 0 0 0 0 0 0 0 0
0 0 0 0 0 0 0 0 0 0 0 0 0 0 0 0 0 0 0 0 0 0 0 0 0 0 0 0 0 0 0 0 0 0 0 0 0 0 0 0 0 0 0 0
0 0 0 0 0 0 0 0 0 0 0 0 0 0 0 0 0 0 0 0 0 0 0 0 0 0 0 0 0 0 0 0 0 0 0 0 0 0 0 0 0 0 0 0
0 0 0 0 0 0 0 0 0 0 0 0 0 0 0 0 0 0 0 0 0 0 0 0 0 0 0 0 0 0 0 0 0 0 0 0 0 0 0 0 0 0 0 0
0 0 0 0 0 0 0 0 0 0 0 0 0 0 0 0 0 0 0 0 0 0 0 0 0 0 0 0 0 0 0 0 0 0 0 0 0 0 0 0 0 0 0 0
0 0 0 0 0 0 0 0 0 0 0 0 0 0 0 0 0 0 0 0 0 0 0 0 0 0 0 0 0 0 0 0 0 0 0 0 0 0 0 0 0 0 0 0
Wind_Speed
3 2 4 5 7 6 5 5 6 4 3 5 8 10 8 5 4 4 4 4 4 4 3 3 3 2 2 1 1 2 2 3 2 2 2 2 1 1 1 1 1 2 2 2
2 4 5 3 3 4 5 6 6 5 3 4 6 11 8 6 7 6 5 4 4 4 4 3 3 2 2 2 2 2 2 2 2 2 2 1 1 1 1 1 1 1 2 2
4 1 1 2 3 4 5 6 5 5 5 4 6 8 7 5 5 5 5 5 4 5 5 5 4 3 2 2 2 2 2 2 2 2 2 1 1 1 1 1 1 1 1 2
3 3 2 3 4 4 5 3 4 4 4 3 3 6 5 6 5 6 6 6 5 5 4 4 4 3 3 2 2 2 2 2 1 2 3 3 2 2 2 2 1 1 1 1
2 1 2 4 4 3 2 3 4 5 4 5 4 5 6 4 4 5 4 5 5 5 5 4 3 3 3 2 2 1 2 1 1 1 2 3 2 2 1 2 2 2 1 1
2 1 2 2 2 2 1 1 2 3 2 6 6 5 6 3 4 2 2 3 3 4 4 3 3 3 3 3 2 2 2 1 1 1 1 3 3 3 2 2 2 2 1 1
3 3 2 0 1 2 2 1 0 1 3 6 3 5 6 1 2 3 3 3 3 3 3 3 3 3 2 2 2 2 2 1 1 1 1 2 3 3 3 3 2 2 1 1
3 3 3 2 2 2 4 3 3 3 4 3 2 6 4 2 3 3 3 3 3 3 3 3 3 3 3 2 2 2 2 1 1 1 1 0 1 2 2 2 2 2 2 2
3 2 1 1 1 1 3 4 3 2 2 3 5 4 2 2 2 3 3 3 2 2 3 3 3 3 2 2 1 1 1 1 1 0 0 1 1 1 2 2 1 1 1 1
2 2 2 1 1 3 3 1 1 3 3 5 5 6 4 3 3 2 2 2 2 2 2 3 3 3 2 2 1 1 1 1 1 1 0 0 1 1 1 1 1 2 2 2
2 2 2 2 5 4 3 3 3 3 4 3 4 4 1 3 4 4 3 2 2 2 2 2 2 2 2 2 2 1 1 1 1 1 0 0 0 1 1 1 1 1 1 1
1 1 3 3 0 1 3 4 4 4 5 4 4 5 2 4 4 3 2 2 2 3 2 2 2 2 2 2 1 1 1 1 1 0 0 0 0 0 1 1 1 1 1 1
1 2 1 2 1 1 3 3 3 2 1 3 4 6 1 3 3 2 2 2 2 3 2 2 1 1 1 1 1 1 1 1 1 1 0 0 0 1 1 1 1 1 1 1
1 3 5 6 3 2 4 5 5 4 4 6 8 7 5 2 1 1 1 1 2 2 2 1 1 0 0 0 0 0 0 1 1 1 1 1 1 1 1 1 1 1 1 2
1 4 4 6 6 4 6 7 8 9 9 8 8 8 8 5 1 0 0 0 1 1 1 1 1 1 1 0 0 0 0 1 1 1 1 1 2 2 1 0 1 1 1 2
2 3 2 5 5 5 8 10 10 11 11 11 11 12 7 3 0 0 1 1 1 2 2 2 2 2 2 1 1 0 0 0 1 0 1 1 2 2 1 1 1 1 2 2
3 3 2 4 3 4 9 11 11 9 8 8 12 10 2 2 2 2 2 2 2 2 2 2 2 2 2 1 1 1 0 1 1 0 1 1 1 2 2 2 1 2 2 2
4 4 3 2 1 8 8 3 7 8 9 8 7 4 2 2 2 2 1 1 2 2 2 2 1 1 1 1 1 1 1 0 0 1 1 1 1 2 2 2 2 2 2 3
5 5 3 3 5 9 6 3 3 5 7 7 8 6 3 1 2 2 1 1 2 2 2 1 0 0 1 1 1 1 0 0 0 1 1 1 1 2 2 2 3 2 2 3
3 3 4 4 5 8 5 2 2 2 6 4 5 5 3 1 2 4 0 1 1 1 1 1 1 1 1 1 1 1 0 0 1 2 2 2 2 2 3 3 3 3 3 3
4 4 6 6 7 9 3 4 4 4 5 0 3 3 3 4 5 1 1 1 1 1 1 1 1 1 0 1 1 0 1 1 2 2 2 2 2 3 3 3 2 2 3 3
8 7 7 6 7 10 3 5 6 5 1 1 1 1 2 3 1 0 1 1 1 1 1 1 0 0 1 1 1 0 2 2 2 2 2 2 3 3 2 3 3 2 2 3
8 8 6 9 9 2 5 4 2 1 0 1 1 1 1 2 2 2 1 1 0 0 1 1 0 0 1 1 0 1 2 2 2 2 2 3 3 3 3 2 3 3 2 2
5 2 4 6 6 3 3 2 1 1 2 1 1 1 1 2 2 2 1 1 1 1 1 0 1 0 1 1 1 1 2 2 1 2 3 3 3 3 3 2 2 2 2 2
5 4 4 7 5 3 3 4 4 3 2 1 1 1 2 2 2 2 2 1 1 1 1 1 0 1 2 1 1 1 1 1 2 3 3 3 3 3 3 3 3 3 3 3
5 6 7 8 4 4 4 1 2 2 3 2 2 2 1 1 2 2 1 1 1 1 1 0 1 1 2 2 2 2 1 2 2 3 3 2 2 2 2 3 3 5 5 7
Wind_Direction
182 202 220 227 233 264 287 277 274 273 258 246 246 257 255 223 217 220 215 210 201 197 167 147 148 144 146 146 158 156 148 161 154 153 162 168 175 168 146 121 96 106 104 106
182 234 254 270 268 264 274 275 278 287 289 273 266 263 251 220 220 218 215 209 198 183 165 157 149 149 160 170 170 161 156 151 162 160 166 164 155 152 155 138 128 114 111 110
204 274 281 262 263 255 256 261 267 282 304 268 282 274 229 208 212 216 221 210 200 194 180 173 169 174 167 168 167 158 153 152 155 148 133 118 122 129 140 152 151 127 128 131
237 259 275 248 254 256 257 287 285 277 285 271 237 279 237 197 204 215 219 214 204 196 184 175 169 166 161 159 132 133 138 140 150 159 159 164 166 178 190 182 161 134 140 151
229 237 246 249 263 262 265 324 286 271 272 278 247 261 269 176 203 223 218 208 196 179 171 164 160 155 143 128 125 132 131 140 158 158 171 173 175 175 160 159 157 161 166 161
249 286 279 269 279 234 234 280 271 257 257 260 233 232 267 205 195 180 169 167 155 138 140 138 136 118 110 111 120 130 130 140 155 168 182 185 183 173 167 173 176 175 169 165
232 227 209 221 208 194 220 180 313 259 231 245 197 220 250 209 122 126 145 150 135 127 132 132 134 130 121 120 127 131 137 150 164 179 185 199 191 187 188 182 186 182 171 167
219 237 193 202 208 216 217 210 196 217 239 266 232 231 238 110 85 76 84 109 120 131 136 140 144 141 135 131 128 136 144 152 154 180 185 191 187 179 183 176 182 193 183 184
226 238 152 209 280 259 216 220 248 265 282 275 243 243 263 138 101 100 97 101 118 136 138 142 138 131 129 127 126 131 144 135 122 131 154 165 183 178 180 177 179 192 182 181
294 267 241 185 229 250 263 234 185 202 221 247 251 242 235 186 189 154 153 166 163 136 137 127 123 117 114 115 105 99 108 116 91 79 83 144 171 176 176 164 183 199 192 192
296 228 252 208 209 209 206 220 226 233 238 232 252 256 42 148 156 158 175 166 157 147 136 124 107 105 99 93 91 85 82 86 75 55 37 116 164 165 169 181 199 201 192 190
221 231 244 235 267 325 238 229 211 212 239 238 259 265 55 74 92 109 115 105 99 109 94 86 87 92 89 83 74 64 47 49 40 38 28 139 45 169 193 196 209 210 205 203
174 189 239 269 257 258 249 239 231 240 248 229 229 254 32 63 57 63 82 92 113 113 108 93 86 96 106 98 77 63 44 25 10 11 18 330 279 236 230 226 220 226 223 224
260 219 215 229 253 221 237 238 220 209 226 240 236 252 280 295 2 60 87 119 132 137 138 141 153 183 191 146 60 37 12 37 12 8 2 296 293 262 226 241 242 233 227 227
213 237 244 270 285 276 256 244 227 225 230 236 255 253 260 267 252 234 178 130 122 170 182 196 209 225 227 220 35 19 11 18 30 25 344 309 326 323 314 296 286 270 250 245
223 238 251 271 268 264 267 253 239 240 241 248 264 269 268 275 0 234 239 209 238 250 234 217 218 222 220 211 210 262 332 347 51 37 323 331 337 325 301 289 290 294 278 260
205 195 216 261 275 304 264 232 220 226 225 223 240 252 258 292 272 255 242 228 243 250 244 233 232 231 226 216 186 208 283 29 52 0 329 331 330 315 302 295 288 277 274 268
205 209 219 252 266 243 245 203 202 221 234 226 245 260 245 242 265 265 238 226 253 260 257 251 248 256 233 167 129 119 92 69 349 300 305 327 330 309 310 298 281 279 279 272
215 210 214 205 239 267 264 232 187 210 252 226 230 248 264 313 344 295 266 175 224 257 265 247 195 358 56 89 88 112 127 166 279 297 310 321 303 290 293 286 283 280 278 277
221 214 214 214 231 246 251 160 140 143 264 224 204 221 227 179 252 257 267 65 24 19 19 39 76 80 80 73 93 106 261 286 290 300 304 309 298 283 279 278 283 283 274 271
180 206 217 224 239 257 233 148 125 181 252 256 179 195 191 204 224 243 61 44 64 59 40 52 80 88 91 91 100 115 323 299 314 324 318 314 306 294 288 286 284 280 273 275
187 190 201 201 223 247 162 146 186 218 350 32 36 215 219 237 259 39 24 0 37 35 22 17 45 8 35 78 103 292 301 326 351 344 328 317 310 300 300 296 293 285 273 273
210 204 198 202 219 232 156 181 206 24 322 325 320 327 268 258 266 270 280 281 310 306 304 321 176 1 10 25 75 275 308 346 343 332 315 307 306 303 297 288 287 285 276 267
231 227 234 246 251 244 210 225 254 269 257 278 294 305 278 259 268 274 275 286 313 315 301 312 130 263 309 337 348 296 320 336 312 300 301 301 300 301 298 285 274 270 270 268
217 193 235 253 264 278 237 231 245 261 268 278 294 274 251 243 260 262 268 273 279 300 346 32 196 247 279 310 309 315 320 309 291 287 290 295 291 289 290 283 269 266 261 257
195 195 209 238 229 228 249 243 222 232 250 257 258 280 287 248 261 276 274 286 295 301 337 329 297 286 298 309 299 302 294 273 272 283 291 293 291 290 289 293 294 282 279 286